Погода в Морочном

Украина / Ровненская область     51°50′45″N   25°55′32″E
темп.,
°C
ветер,
м/с
пор.,
м/с
влажн.,
%
обл.,
%
осадки,
мм/ч
давл.,
гПа
погр.,
м
6 мая, чт
чт600:00+10сз3695100 0.8 1001391
03:00+8зсз5995100 1.6 1001696
06:00+7з71192100 2.7 10041153
09:00+8з7118310 3.8 10061052
12:00+7зюз610745 0.2 10091239
15:00+13з7123583 0.2 10103027
18:00+13зюз5104286 0.0 10092929
21:00+7ююз346851 0.0 101055
7 мая, пт
пт700:00+6ююз4118471 0.1 1011271
03:00+5ююз41190100 0.1 1011259
06:00+5ю3793100 0.0 1010149
09:00+10ююз4868100 0.0 1008555
12:00+12ю5960100 0.2 10061695
15:00+11ююз598070 0.8 10051015
18:00+12з51073100 0.2 10041190
21:00+9зюз399091 0.4 1005268
8 мая, сб
сб800:00+8зюз6128798 0.0 1006685
03:00+6з61088100 0.1 1008939
06:00+3з5118999 0.1 1011843
09:00+5з61086100 0.4 10131292
12:00+8зсз8106549 0.4 10151473
15:00+9зсз685929 0.5 10171434
18:00+9з69605 0.1 10171378
21:00+5з23824 0.1 101954
9 мая, вс
вс900:00+3зюз36885 0.0 1020108
03:00+2з36945 0.0 1022121
06:00+2з25965 0.0 102494
09:00+8з23725 0.0 1025450
12:00+12з24465 0.0 10251463
15:00+15з2437100 0.0 10241898
18:00+15юз34395 0.0 10231899
21:00+9ю34695 0.0 102454
10 мая, пн
пн1000:00+7ююв377115 0.0 1025115
03:00+6ююв387450 0.0 1025134
06:00+5ююв37775 0.0 1025132
09:00+12ююв48546 0.0 1025399
12:00+17ююв67425 0.0 10251208
15:00+19ююв67375 0.0 10231432
18:00+19ююв57450 0.0 10231241
21:00+13юв410675 0.0 1023258